"Pseudo-MPEC" for ZTF04Yj

Created 2019 Jul 18 12:07:08 UT using Find_Orb

Click here for an explanation of pseudo-MPECs

 
 Astrometry: 
     ZTF04Yj  C2019 07 07.22544917 27 40.77 -09 40 32.4    ~780q 17.76RUNEOCPI41
     ZTF04Yj  C2019 07 07.22579617 27 45.40 -09 40 17.2    ~780q 17.76RUNEOCPI41
     ZTF04Yj  C2019 07 07.25994317 34 52.92 -09 18 36.2    ~780q 17.78RUNEOCPI41
     ZTF04Yj  C2019 07 07.26029017 34 56.95 -09 18 23.9    ~780q 17.78RUNEOCPI41
     ZTF04Yj  C2019 07 07.26775017 36 25.54 -09 13 46.1    ~780q 17.95RUNEOCPI41
     ZTF04Yj  C2019 07 07.26809717 36 29.61 -09 13 33.5    ~780q 17.95RUNEOCPI41

Station data:
(I41) Palomar Mountain--ZTF  (N33.357340 W116.859780)  US/California. 1.2-m
   f/2.44 Oschin Schmidt + CCD.

Orbital elements:  ZTF04Yj
   Perigee 2019 Jul 6.741180 +/- 0.00502 TT = 17:47:17 (JD 2458671.241180)
Epoch 2019 Jul  7.0 TT = JDT 2458671.5                        AutoNEOCP
q226833.468 +/- 48498               (J2000 equator)
H   30.2  G 0.15                    Peri.  265.57770 +/- 1.3
                                    Node   304.22625 +/- 0.9
e  23.8524401 +/- 17.6              Incl.   13.15868 +/- 0.11
From 6 observations 2019 July 7 (61.4 min); mean residual 0".60
Residuals in arcseconds: 
190707 I41  .66-  .85-    190707 I41  .91+  .30+    190707 I41  .09+  .14+    
190707 I41  .67+  .86+    190707 I41  .98-  .36-    190707 I41  .03-  .09-    

Ephemerides (geocentric):
Date (UTC) HH   RA              Dec         delta   r     elong  mag " sig PA
---- -- -- --  -------------   -----------  ------ ------ -----  --- ---- ---
2019 07 18 12  20 00 51.179   -01 16 28.36  .04370 1.0575 160.0 24.5 4743  83
2019 07 18 13  20 00 52.787   -01 16 30.61  .04385 1.0576 160.0 24.5 4744  83
2019 07 18 14  20 00 54.382   -01 16 32.92  .04401 1.0578 160.0 24.5 4745  83
2019 07 18 15  20 00 55.964   -01 16 35.31  .04417 1.0579 160.0 24.5 4747  83
2019 07 18 16  20 00 57.535   -01 16 37.76  .04432 1.0581 160.1 24.5 4748  83
2019 07 18 17  20 00 59.093   -01 16 40.28  .04448 1.0582 160.1 24.5 4749  83
2019 07 18 18  20 01 00.639   -01 16 42.87  .04464 1.0584 160.1 24.5 4751  83
2019 07 18 19  20 01 02.174   -01 16 45.53  .04480 1.0585 160.1 24.6 4752  83
2019 07 18 20  20 01 03.696   -01 16 48.25  .04495 1.0587 160.1 24.6 4753  83
2019 07 18 21  20 01 05.207   -01 16 51.04  .04511 1.0588 160.1 24.6 4754  83
2019 07 18 22  20 01 06.707   -01 16 53.89  .04527 1.0590 160.1 24.6 4755  83
2019 07 18 23  20 01 08.195   -01 16 56.81  .04542 1.0591 160.1 24.6 4757  83
2019 07 19 00  20 01 09.672   -01 16 59.79  .04558 1.0593 160.2 24.6 4758  83
2019 07 19 01  20 01 11.137   -01 17 02.84  .04574 1.0594 160.2 24.6 4759  83
2019 07 19 02  20 01 12.592   -01 17 05.95  .04590 1.0596 160.2 24.6 4760  83
2019 07 19 03  20 01 14.036   -01 17 09.13  .04605 1.0597 160.2 24.6 4761  83
2019 07 19 04  20 01 15.469   -01 17 12.37  .04621 1.0599 160.2 24.6 4762  83
2019 07 19 05  20 01 16.891   -01 17 15.67  .04637 1.0600 160.2 24.6 4764  83
2019 07 19 06  20 01 18.302   -01 17 19.04  .04653 1.0602 160.2 24.6 4765  83
2019 07 19 07  20 01 19.703   -01 17 22.46  .04668 1.0603 160.2 24.6 4766  83
2019 07 19 08  20 01 21.094   -01 17 25.95  .04684 1.0605 160.3 24.6 4767  83
2019 07 19 09  20 01 22.475   -01 17 29.50  .04700 1.0606 160.3 24.7 4768  83
2019 07 19 10  20 01 23.845   -01 17 33.11  .04716 1.0608 160.3 24.7 4769  83
2019 07 19 11  20 01 25.205   -01 17 36.78  .04732 1.0609 160.3 24.7 4770  83
2019 07 19 12  20 01 26.555   -01 17 40.52  .04747 1.0611 160.3 24.7 4771  83
2019 07 19 13  20 01 27.896   -01 17 44.31  .04763 1.0612 160.3 24.7 4772  83
2019 07 19 14  20 01 29.226   -01 17 48.16  .04779 1.0614 160.3 24.7 4773  83
2019 07 19 15  20 01 30.547   -01 17 52.07  .04795 1.0615 160.3 24.7 4774  83
2019 07 19 16  20 01 31.858   -01 17 56.04  .04810 1.0617 160.3 24.7 4775  83
2019 07 19 17  20 01 33.160   -01 18 00.07  .04826 1.0618 160.4 24.7 4776  83
2019 07 19 18  20 01 34.453   -01 18 04.16  .04842 1.0620 160.4 24.7 4777  83
2019 07 19 19  20 01 35.736   -01 18 08.31  .04858 1.0621 160.4 24.7 4778  83
2019 07 19 20  20 01 37.010   -01 18 12.51  .04874 1.0623 160.4 24.7 4779  83
2019 07 19 21  20 01 38.275   -01 18 16.77  .04889 1.0624 160.4 24.7 4780  83
2019 07 19 22  20 01 39.530   -01 18 21.09  .04905 1.0626 160.4 24.7 4781  83
2019 07 19 23  20 01 40.777   -01 18 25.47  .04921 1.0627 160.4 24.8 4781  83
2019 07 20 00  20 01 42.015   -01 18 29.90  .04937 1.0629 160.4 24.8 4782  83
2019 07 20 01  20 01 43.245   -01 18 34.39  .04953 1.0630 160.5 24.8 4783  83
2019 07 20 02  20 01 44.465   -01 18 38.93  .04969 1.0632 160.5 24.8 4784  83
2019 07 20 03  20 01 45.677   -01 18 43.53  .04984 1.0633 160.5 24.8 4785  83
2019 07 20 04  20 01 46.881   -01 18 48.18  .05000 1.0635 160.5 24.8 4786  83
2019 07 20 05  20 01 48.076   -01 18 52.89  .05016 1.0636 160.5 24.8 4786  83
2019 07 20 06  20 01 49.263   -01 18 57.66  .05032 1.0638 160.5 24.8 4787  83
2019 07 20 07  20 01 50.441   -01 19 02.48  .05048 1.0639 160.5 24.8 4788  83
2019 07 20 08  20 01 51.611   -01 19 07.35  .05064 1.0641 160.5 24.8 4789  83
2019 07 20 09  20 01 52.774   -01 19 12.28  .05079 1.0642 160.5 24.8 4790  83
2019 07 20 10  20 01 53.928   -01 19 17.26  .05095 1.0644 160.6 24.8 4790  83
2019 07 20 11  20 01 55.074   -01 19 22.30  .05111 1.0645 160.6 24.8 4791  83